EUTE 36B (EUTE W7)

导读 | 豆包AI

EUTE 36B卫星,又称EUTE W7,由欧洲通信卫星组织EUTE发射,于2009年11月24日成功升空。作为通信卫星,它主要承担广播电视、数据传输等业务,覆盖欧洲、非洲等区域,为用户提供稳定的通信广播服务,服役多年来在区域通信领域发挥了重要作用,满足了多场景的通信需求。

Basic Information
目录编号:
36101
目录名称:
EUTE 36B (EUTE W7)
国际标识:
2009-065A
轨道中心:
EARTH
卫星名称:
EUTE 36B (EUTE W7)
卫星全名:
--
卫星状态:
在轨 (已飞行6002 天)
发射日期:
2009-11-24 UTC
国别 :
(EUTE)
星等 :
--
Orbit Information
数据来源 国际轨道数据 AOE轨道数据
星历时间 2026-05-01T06:11:35+0800
9小时前
查看轨道信息
2026-05-01T05:00:00+0800
10小时前
查看轨道信息
半长轴 42164.672km 42164.728km
偏心率 0.0006048 0.0006031
轨道倾角 0.373° 0.373°
近地点辐角 321.085° 320.325°
升交点赤经 80.055° 80.087°
平近点角 201.107° 183.888°
近地点 35761.033km 35761.161km
远地点 35812.037km 35812.021km
周期 1436.094分钟 1436.097分钟
每日圈数 1.00272 1.002718
Detailed Information
使用方式:
暂无
2D Orbit Map
3D Orbit Map
Orbit Altitude Analysis Chart
Orbit Inclination Analysis Chart
Orbit Comprehensive Analysis Chart
View Comprehensive Chart